Time,TemperatureF,DewpointF,PressureIn,WindDirection,WindDirectionDegrees,WindSpeedMPH,WindSpeedGustMPH,Humidity,HourlyPrecipIn,Conditions,Clouds,dailyrainin,SoftwareType,DateUTC
2014-12-26 00:12:00,38.0,35.0,29.98,SE,145,3.0,8.0,90,0.00,,,0.01,,2014-12-26 06:12:00,
2014-12-26 00:22:00,37.0,34.0,29.97,South,188,3.0,7.0,90,0.00,,,0.01,,2014-12-26 06:22:00,
2014-12-26 00:42:00,37.0,34.0,29.97,SSW,208,3.0,10.0,90,0.00,,,0.01,,2014-12-26 06:42:00,
2014-12-26 00:52:00,37.0,34.0,29.97,SE,124,4.0,9.0,90,0.00,,,0.01,,2014-12-26 06:52:00,
2014-12-26 01:11:00,37.0,34.0,29.97,SW,233,4.0,11.0,90,0.00,,,0.01,,2014-12-26 07:11:00,
2014-12-26 01:22:00,37.0,34.0,29.96,South,187,4.0,8.0,90,0.00,,,0.01,,2014-12-26 07:22:00,
2014-12-26 01:53:00,37.0,34.0,29.96,South,189,4.0,11.0,90,0.00,,,0.01,,2014-12-26 07:53:00,
2014-12-26 02:12:00,37.0,34.0,29.96,SW,219,4.0,9.0,89,0.00,,,0.01,,2014-12-26 08:12:00,
2014-12-26 02:22:00,37.0,34.0,29.97,SW,219,5.0,9.0,89,0.00,,,0.01,,2014-12-26 08:22:00,
2014-12-26 02:42:00,37.0,34.0,29.97,South,184,3.0,9.0,89,0.00,,,0.01,,2014-12-26 08:42:00,
2014-12-26 02:52:00,37.0,34.0,29.97,SW,219,4.0,10.0,89,0.00,,,0.01,,2014-12-26 08:52:00,
2014-12-26 03:12:00,37.0,34.0,29.96,SW,232,3.0,8.0,89,0.00,,,0.01,,2014-12-26 09:12:00,
2014-12-26 03:22:00,37.0,34.0,29.96,SW,224,2.0,7.0,90,0.00,,,0.01,,2014-12-26 09:22:00,
2014-12-26 03:43:00,37.0,34.0,29.96,SSE,152,2.0,5.0,90,0.00,,,0.01,,2014-12-26 09:43:00,
2014-12-26 03:53:00,37.0,34.0,29.96,SW,219,3.0,5.0,90,0.00,,,0.01,,2014-12-26 09:53:00,
2014-12-26 04:12:00,37.0,34.0,29.95,SSE,165,2.0,8.0,90,0.00,,,0.01,,2014-12-26 10:12:00,
2014-12-26 04:23:00,37.0,34.0,29.95,SSE,165,2.0,8.0,90,0.00,,,0.01,,2014-12-26 10:23:00,
2014-12-26 04:33:00,37.0,34.0,29.95,SSE,165,2.0,8.0,90,0.00,,,0.01,,2014-12-26 10:33:00,
2014-12-26 04:42:00,37.0,34.0,29.95,SSE,165,2.0,8.0,90,0.00,,,0.01,,2014-12-26 10:42:00,
2014-12-26 05:22:00,37.0,34.0,29.95,SW,235,3.0,6.0,90,0.00,,,0.01,,2014-12-26 11:22:00,
2014-12-26 05:42:00,37.0,34.0,29.96,South,183,2.0,7.0,90,0.00,,,0.01,,2014-12-26 11:42:00,
2014-12-26 05:52:00,37.0,35.0,29.96,SSE,152,3.0,10.0,91,0.00,,,0.01,,2014-12-26 11:52:00,
2014-12-26 06:12:00,37.0,35.0,29.96,SSW,210,2.0,7.0,91,0.00,,,0.01,,2014-12-26 12:12:00,
2014-12-26 06:22:00,37.0,35.0,29.97,SSE,152,2.0,8.0,91,0.00,,,0.01,,2014-12-26 12:22:00,
2014-12-26 06:42:00,37.0,35.0,29.97,SW,222,2.0,6.0,92,0.00,,,0.01,,2014-12-26 12:42:00,
2014-12-26 06:52:00,36.0,34.0,29.97,SSE,152,2.0,4.0,92,0.00,,,0.01,,2014-12-26 12:52:00,
2014-12-26 07:11:00,36.0,34.0,29.98,South,172,2.0,6.0,93,0.00,,,0.01,,2014-12-26 13:11:00,
2014-12-26 07:22:00,36.0,34.0,29.98,SSW,200,2.0,5.0,93,0.00,,,0.01,,2014-12-26 13:22:00,
2014-12-26 07:42:00,36.0,34.0,29.98,SE,141,1.0,8.0,93,0.00,,,0.01,,2014-12-26 13:42:00,
2014-12-26 07:52:00,36.0,34.0,29.97,SSW,212,1.0,4.0,93,0.00,,,0.01,,2014-12-26 13:52:00,
2014-12-26 08:12:00,36.0,34.0,29.98,SW,218,2.0,6.0,94,0.00,,,0.01,,2014-12-26 14:12:00,
2014-12-26 08:22:00,36.0,34.0,29.98,ESE,113,1.0,6.0,94,0.00,,,0.01,,2014-12-26 14:22:00,
2014-12-26 08:42:00,36.0,34.0,29.98,South,177,2.0,7.0,94,0.00,,,0.01,,2014-12-26 14:42:00,
2014-12-26 08:53:00,36.0,34.0,29.99,SSE,156,2.0,6.0,93,0.00,,,0.01,,2014-12-26 14:53:00,
2014-12-26 09:12:00,37.0,35.0,30.00,SW,231,1.0,8.0,93,0.00,,,0.01,,2014-12-26 15:12:00,